Terminal Aerodrome Forecast
Issued by NWS La Crosse, WI

Home | Current Version | Previous Version | Text Only | Print | Product List | Glossary On
Versions: 1 2 3 4 5 6 7 8 9 10 11 12 13 14 15 16 17 18 19 20 21 22 23 24 25 26 27 28 29 30 31 32 33 34 35 36 37 38 39 40 41 42 43 44 45 46 47 48
000
FTUS43 KARX 020520
TAFRST
TAF
KRST 020520Z 0206/0306 30010KT P6SM SKC
     FM020800 24005KT P6SM SCT100
     FM021300 28008KT P6SM BKN100
     FM021700 28008KT P6SM BKN050
     FM022300 24005KT P6SM SCT100=

USA.gov is the U.S. government's official web portal to all federal, state and local government web resources and services.